Year,Month,Day,Hour,Minute,Value (Times are PST for temperature in C)
2017,07,06,00,00,15.30
2017,07,06,00,01,15.30
2017,07,06,00,02,15.30
2017,07,06,00,03,15.30
2017,07,06,00,04,15.30
2017,07,06,00,05,15.20
2017,07,06,00,06,15.20
2017,07,06,00,07,15.30
2017,07,06,00,08,15.20
2017,07,06,00,09,15.20
2017,07,06,00,10,15.20
2017,07,06,00,11,15.20
2017,07,06,00,12,15.20
2017,07,06,00,13,15.20
2017,07,06,00,14,15.20
2017,07,06,00,15,15.20
2017,07,06,00,16,15.20
2017,07,06,00,17,15.20
2017,07,06,00,18,15.10
2017,07,06,00,19,15.10
2017,07,06,00,20,15.10
2017,07,06,00,21,15.10
2017,07,06,00,22,15.20
2017,07,06,00,23,15.10
2017,07,06,00,24,15.10
2017,07,06,00,25,15.10
2017,07,06,00,26,15.10
2017,07,06,00,27,15.00
2017,07,06,00,28,15.00
2017,07,06,00,29,14.90
2017,07,06,00,30,14.90
2017,07,06,00,31,14.80
2017,07,06,00,32,14.80
2017,07,06,00,33,14.80
2017,07,06,00,34,14.80
2017,07,06,00,35,14.80
2017,07,06,00,36,14.80
2017,07,06,00,37,14.70
2017,07,06,00,38,14.70
2017,07,06,00,39,14.60
2017,07,06,00,40,14.60
2017,07,06,00,41,14.50
2017,07,06,00,42,14.50
2017,07,06,00,43,14.50
2017,07,06,00,44,14.50
2017,07,06,00,45,14.60
2017,07,06,00,46,14.70
2017,07,06,00,47,14.70
2017,07,06,00,48,14.70
2017,07,06,00,49,14.70
2017,07,06,00,50,14.70
2017,07,06,00,51,14.70
2017,07,06,00,52,14.70
2017,07,06,00,53,14.70
2017,07,06,00,54,14.80
2017,07,06,00,55,14.80
2017,07,06,00,56,14.80
2017,07,06,00,57,14.80
2017,07,06,00,58,14.80
2017,07,06,00,59,14.80
2017,07,06,01,00,14.80
2017,07,06,01,01,14.70
2017,07,06,01,02,14.70
2017,07,06,01,03,14.70
2017,07,06,01,04,14.70
2017,07,06,01,05,14.70
2017,07,06,01,06,14.70
2017,07,06,01,07,14.60
2017,07,06,01,08,14.60
2017,07,06,01,09,14.60
2017,07,06,01,10,14.50
2017,07,06,01,11,14.40
2017,07,06,01,12,14.40
2017,07,06,01,13,14.40
2017,07,06,01,14,14.30
2017,07,06,01,15,14.30
2017,07,06,01,16,14.30
2017,07,06,01,17,14.30
2017,07,06,01,18,14.30
2017,07,06,01,19,14.30
2017,07,06,01,20,14.30
2017,07,06,01,21,14.30
2017,07,06,01,22,14.30
2017,07,06,01,23,14.20
2017,07,06,01,24,14.20
2017,07,06,01,25,14.20
2017,07,06,01,26,14.20
2017,07,06,01,27,14.10
2017,07,06,01,28,14.10
2017,07,06,01,29,14.00
2017,07,06,01,30,14.00
2017,07,06,01,31,13.90
2017,07,06,01,32,13.90
2017,07,06,01,33,13.80
2017,07,06,01,34,13.70
2017,07,06,01,35,13.70
2017,07,06,01,36,13.70
2017,07,06,01,37,13.70
2017,07,06,01,38,13.70
2017,07,06,01,39,13.80
2017,07,06,01,40,13.80
2017,07,06,01,41,13.80
2017,07,06,01,42,13.80
2017,07,06,01,43,13.80
2017,07,06,01,44,13.70
2017,07,06,01,45,13.70
2017,07,06,01,46,13.70
2017,07,06,01,47,13.70
2017,07,06,01,48,13.60
2017,07,06,01,49,13.60
2017,07,06,01,50,13.60
2017,07,06,01,51,13.60
2017,07,06,01,52,13.60
2017,07,06,01,53,13.60
2017,07,06,01,54,13.50
2017,07,06,01,55,13.50
2017,07,06,01,56,13.50
2017,07,06,01,57,13.40
2017,07,06,01,58,13.40
2017,07,06,01,59,13.40
2017,07,06,02,00,13.40
2017,07,06,02,01,13.40
2017,07,06,02,02,13.30
2017,07,06,02,03,13.30
2017,07,06,02,04,13.30
2017,07,06,02,05,13.30
2017,07,06,02,06,13.30
2017,07,06,02,07,13.30
2017,07,06,02,08,13.20
2017,07,06,02,09,13.20
2017,07,06,02,10,13.20
2017,07,06,02,11,13.20
2017,07,06,02,12,13.20
2017,07,06,02,13,13.20
2017,07,06,02,14,13.20
2017,07,06,02,15,13.20
2017,07,06,02,16,13.20
2017,07,06,02,17,13.10
2017,07,06,02,18,13.10
2017,07,06,02,19,13.10
2017,07,06,02,20,13.00
2017,07,06,02,21,13.00
2017,07,06,02,22,12.90
2017,07,06,02,23,12.90
2017,07,06,02,24,12.90
2017,07,06,02,25,12.90
2017,07,06,02,26,12.90
2017,07,06,02,27,12.90
2017,07,06,02,28,12.90
2017,07,06,02,29,12.90
2017,07,06,02,30,12.90
2017,07,06,02,31,12.90
2017,07,06,02,32,12.90
2017,07,06,02,33,12.90
2017,07,06,02,34,12.90
2017,07,06,02,35,12.90
2017,07,06,02,36,12.90
2017,07,06,02,37,12.90
2017,07,06,02,38,12.80
2017,07,06,02,39,12.80
2017,07,06,02,40,12.80
2017,07,06,02,41,12.80
2017,07,06,02,42,12.80
2017,07,06,02,43,12.80
2017,07,06,02,44,12.70
2017,07,06,02,45,12.70
2017,07,06,02,46,12.70
2017,07,06,02,47,12.70
2017,07,06,02,48,12.60
2017,07,06,02,49,12.60
2017,07,06,02,50,12.60
2017,07,06,02,51,12.60
2017,07,06,02,52,12.50
2017,07,06,02,53,12.50
2017,07,06,02,54,12.50
2017,07,06,02,55,12.50
2017,07,06,02,56,12.50
2017,07,06,02,57,12.50
2017,07,06,02,58,12.50
2017,07,06,02,59,12.50
2017,07,06,03,00,12.50
2017,07,06,03,01,12.50
2017,07,06,03,02,12.40
2017,07,06,03,03,12.40
2017,07,06,03,04,12.40
2017,07,06,03,05,12.40
2017,07,06,03,06,12.40
2017,07,06,03,07,12.40
2017,07,06,03,08,12.40
2017,07,06,03,09,12.30
2017,07,06,03,10,12.30
2017,07,06,03,11,12.30
2017,07,06,03,12,12.30
2017,07,06,03,13,12.30
2017,07,06,03,14,12.30
2017,07,06,03,15,12.30
2017,07,06,03,16,12.30
2017,07,06,03,17,12.30
2017,07,06,03,18,12.30
2017,07,06,03,19,12.30
2017,07,06,03,20,12.30
2017,07,06,03,21,12.30
2017,07,06,03,22,12.30
2017,07,06,03,23,12.30
2017,07,06,03,24,12.30
2017,07,06,03,25,12.30
2017,07,06,03,26,12.30
2017,07,06,03,27,12.30
2017,07,06,03,28,12.30
2017,07,06,03,29,12.30
2017,07,06,03,30,12.30
2017,07,06,03,31,12.30
2017,07,06,03,32,12.30
2017,07,06,03,33,12.20
2017,07,06,03,34,12.20
2017,07,06,03,35,12.20
2017,07,06,03,36,12.30
2017,07,06,03,37,12.30
2017,07,06,03,38,12.20
2017,07,06,03,39,12.20
2017,07,06,03,40,12.20
2017,07,06,03,41,12.20
2017,07,06,03,42,12.20
2017,07,06,03,43,12.20
2017,07,06,03,44,12.20
2017,07,06,03,45,12.20
2017,07,06,03,46,12.10
2017,07,06,03,47,12.10
2017,07,06,03,48,12.10
2017,07,06,03,49,12.10
2017,07,06,03,50,12.10
2017,07,06,03,51,12.00
2017,07,06,03,52,12.00
2017,07,06,03,53,12.00
2017,07,06,03,54,12.00
2017,07,06,03,55,12.00
2017,07,06,03,56,12.00
2017,07,06,03,57,12.10
2017,07,06,03,58,12.10
2017,07,06,03,59,12.10
2017,07,06,04,00,12.10
2017,07,06,04,01,12.10
2017,07,06,04,02,12.10
2017,07,06,04,03,12.10
2017,07,06,04,04,12.10
2017,07,06,04,05,12.10
2017,07,06,04,06,12.10
2017,07,06,04,07,12.10
2017,07,06,04,08,12.10
2017,07,06,04,09,12.10
2017,07,06,04,10,12.10
2017,07,06,04,11,12.10
2017,07,06,04,12,12.10
2017,07,06,04,13,12.10
2017,07,06,04,14,12.10
2017,07,06,04,15,12.10
2017,07,06,04,16,12.10
2017,07,06,04,17,12.10
2017,07,06,04,18,12.10
2017,07,06,04,19,12.20
2017,07,06,04,20,12.20
2017,07,06,04,21,12.20
2017,07,06,04,22,12.20
2017,07,06,04,23,12.20
2017,07,06,04,24,12.20
2017,07,06,04,25,12.30
2017,07,06,04,26,12.30
2017,07,06,04,27,12.30
2017,07,06,04,28,12.30
2017,07,06,04,29,12.30
2017,07,06,04,30,12.30
2017,07,06,04,31,12.30
2017,07,06,04,32,12.30
2017,07,06,04,33,12.30
2017,07,06,04,34,12.30
2017,07,06,04,35,12.30
2017,07,06,04,36,12.30
2017,07,06,04,37,12.30
2017,07,06,04,38,12.30
2017,07,06,04,39,12.30
2017,07,06,04,40,12.30
2017,07,06,04,41,12.30
2017,07,06,04,42,12.30
2017,07,06,04,43,12.30
2017,07,06,04,44,12.30
2017,07,06,04,45,12.30
2017,07,06,04,46,12.30
2017,07,06,04,47,12.30
2017,07,06,04,48,12.30
2017,07,06,04,49,12.30
2017,07,06,04,50,12.40
2017,07,06,04,51,12.40
2017,07,06,04,52,12.40
2017,07,06,04,53,12.40
2017,07,06,04,54,12.40
2017,07,06,04,55,12.40
2017,07,06,04,56,12.30
2017,07,06,04,57,12.30
2017,07,06,04,58,12.30
2017,07,06,04,59,12.30
2017,07,06,05,00,12.30
2017,07,06,05,01,12.30
2017,07,06,05,02,12.30
2017,07,06,05,03,12.30
2017,07,06,05,04,12.30
2017,07,06,05,05,12.30
2017,07,06,05,06,12.30
2017,07,06,05,07,12.30
2017,07,06,05,08,12.20
2017,07,06,05,09,12.20
2017,07,06,05,10,12.20
2017,07,06,05,11,12.20
2017,07,06,05,12,12.20
2017,07,06,05,13,12.20
2017,07,06,05,14,12.20
2017,07,06,05,15,12.20
2017,07,06,05,16,12.20
2017,07,06,05,17,12.20
2017,07,06,05,18,12.20
2017,07,06,05,19,12.20
2017,07,06,05,20,12.20
2017,07,06,05,21,12.10
2017,07,06,05,22,12.10
2017,07,06,05,23,12.10
2017,07,06,05,24,12.10
2017,07,06,05,25,12.10
2017,07,06,05,26,12.00
2017,07,06,05,27,12.00
2017,07,06,05,28,12.00
2017,07,06,05,29,11.90
2017,07,06,05,30,11.90
2017,07,06,05,31,11.90
2017,07,06,05,32,11.90
2017,07,06,05,33,11.90
2017,07,06,05,34,11.90
2017,07,06,05,35,11.90
2017,07,06,05,36,11.90
2017,07,06,05,37,11.90
2017,07,06,05,38,11.90
2017,07,06,05,39,11.90
2017,07,06,05,40,11.90
2017,07,06,05,41,11.90
2017,07,06,05,42,11.90
2017,07,06,05,43,11.90
2017,07,06,05,44,11.90
2017,07,06,05,45,11.90
2017,07,06,05,46,11.90
2017,07,06,05,47,11.90
2017,07,06,05,48,11.90
2017,07,06,05,49,11.90
2017,07,06,05,50,11.90
2017,07,06,05,51,11.90
2017,07,06,05,52,11.90
2017,07,06,05,53,12.00
2017,07,06,05,54,12.00
2017,07,06,05,55,12.00
2017,07,06,05,56,12.00
2017,07,06,05,57,12.00
2017,07,06,05,58,12.00
2017,07,06,05,59,12.00
2017,07,06,06,00,12.00
2017,07,06,06,01,12.00
2017,07,06,06,02,12.00
2017,07,06,06,03,12.00
2017,07,06,06,04,12.00
2017,07,06,06,05,12.00
2017,07,06,06,06,12.00
2017,07,06,06,07,11.90
2017,07,06,06,08,11.90
2017,07,06,06,09,11.90
2017,07,06,06,10,11.90
2017,07,06,06,11,11.90
2017,07,06,06,12,11.90
2017,07,06,06,13,11.90
2017,07,06,06,14,11.90
2017,07,06,06,15,11.90
2017,07,06,06,16,11.90
2017,07,06,06,17,11.90
2017,07,06,06,18,11.90
2017,07,06,06,19,11.90
2017,07,06,06,20,11.90
2017,07,06,06,21,12.00
2017,07,06,06,22,12.00
2017,07,06,06,23,12.00
2017,07,06,06,24,12.00
2017,07,06,06,25,12.00
2017,07,06,06,26,12.10
2017,07,06,06,27,12.10
2017,07,06,06,28,12.10
2017,07,06,06,29,12.10
2017,07,06,06,30,12.10
2017,07,06,06,31,12.10
2017,07,06,06,32,12.10
2017,07,06,06,33,12.10
2017,07,06,06,34,12.10
2017,07,06,06,35,12.10
2017,07,06,06,36,12.10
2017,07,06,06,37,12.10
2017,07,06,06,38,12.10
2017,07,06,06,39,12.10
2017,07,06,06,40,12.10
2017,07,06,06,41,12.10
2017,07,06,06,42,12.10
2017,07,06,06,43,12.10
2017,07,06,06,44,12.10
2017,07,06,06,45,12.20
2017,07,06,06,46,12.20
2017,07,06,06,47,12.20
2017,07,06,06,48,12.20
2017,07,06,06,49,12.20
2017,07,06,06,50,12.20
2017,07,06,06,51,12.10
2017,07,06,06,52,12.20
2017,07,06,06,53,12.10
2017,07,06,06,54,12.10
2017,07,06,06,55,12.10
2017,07,06,06,56,12.10
2017,07,06,06,57,12.10
2017,07,06,06,58,12.10
2017,07,06,06,59,12.10
2017,07,06,07,00,12.10
2017,07,06,07,01,12.20
2017,07,06,07,02,12.20
2017,07,06,07,03,12.20
2017,07,06,07,04,12.20
2017,07,06,07,05,12.20
2017,07,06,07,06,12.20
2017,07,06,07,07,12.20
2017,07,06,07,08,12.20
2017,07,06,07,09,12.30
2017,07,06,07,10,12.30
2017,07,06,07,11,12.30
2017,07,06,07,12,12.40
2017,07,06,07,13,12.40
2017,07,06,07,14,12.40
2017,07,06,07,15,12.50
2017,07,06,07,16,12.50
2017,07,06,07,17,12.60
2017,07,06,07,18,12.60
2017,07,06,07,19,12.70
2017,07,06,07,20,12.70
2017,07,06,07,21,12.80
2017,07,06,07,22,12.90
2017,07,06,07,23,12.90
2017,07,06,07,24,13.00
2017,07,06,07,25,13.00
2017,07,06,07,26,13.10
2017,07,06,07,27,13.20
2017,07,06,07,28,13.20
2017,07,06,07,29,13.30
2017,07,06,07,30,13.30
2017,07,06,07,31,13.40
2017,07,06,07,32,13.40
2017,07,06,07,33,13.50
2017,07,06,07,34,13.50
2017,07,06,07,35,13.60
2017,07,06,07,36,13.60
2017,07,06,07,37,13.60
2017,07,06,07,38,13.70
2017,07,06,07,39,13.80
2017,07,06,07,40,13.80
2017,07,06,07,41,13.90
2017,07,06,07,42,14.00
2017,07,06,07,43,14.00
2017,07,06,07,44,14.10
2017,07,06,07,45,14.20
2017,07,06,07,46,14.20
2017,07,06,07,47,14.30
2017,07,06,07,48,14.30
2017,07,06,07,49,14.30
2017,07,06,07,50,14.40
2017,07,06,07,51,14.40
2017,07,06,07,52,14.40
2017,07,06,07,53,14.50
2017,07,06,07,54,14.50
2017,07,06,07,55,14.60
2017,07,06,07,56,14.60
2017,07,06,07,57,14.60
2017,07,06,07,58,14.70
2017,07,06,07,59,14.70
2017,07,06,08,00,14.70
2017,07,06,08,01,14.70
2017,07,06,08,02,14.80
2017,07,06,08,03,14.80
2017,07,06,08,04,14.80
2017,07,06,08,05,14.90
2017,07,06,08,06,14.90
2017,07,06,08,07,14.90
2017,07,06,08,08,15.00
2017,07,06,08,09,15.10
2017,07,06,08,10,15.10
2017,07,06,08,11,15.20
2017,07,06,08,12,15.20
2017,07,06,08,13,15.30
2017,07,06,08,14,15.30
2017,07,06,08,15,15.40
2017,07,06,08,16,15.40
2017,07,06,08,17,15.50
2017,07,06,08,18,15.60
2017,07,06,08,19,15.70
2017,07,06,08,20,15.80
2017,07,06,08,21,15.80
2017,07,06,08,22,15.90
2017,07,06,08,23,16.00
2017,07,06,08,24,16.10
2017,07,06,08,25,16.20
2017,07,06,08,26,16.20
2017,07,06,08,27,16.30
2017,07,06,08,28,16.40
2017,07,06,08,29,16.40
2017,07,06,08,30,16.50
2017,07,06,08,31,16.60
2017,07,06,08,32,16.60
2017,07,06,08,33,16.70
2017,07,06,08,34,16.70
2017,07,06,08,35,16.80
2017,07,06,08,36,16.80
2017,07,06,08,37,16.80
2017,07,06,08,38,16.80
2017,07,06,08,39,16.80
2017,07,06,08,40,16.90
2017,07,06,08,41,16.90
2017,07,06,08,42,16.90
2017,07,06,08,43,16.90
2017,07,06,08,44,16.90
2017,07,06,08,45,16.90
2017,07,06,08,46,16.90
2017,07,06,08,47,16.90
2017,07,06,08,48,16.90
2017,07,06,08,49,16.90
2017,07,06,08,50,17.00
2017,07,06,08,51,17.00
2017,07,06,08,52,17.00
2017,07,06,08,53,17.10
2017,07,06,08,54,17.10
2017,07,06,08,55,17.10
2017,07,06,08,56,17.20
2017,07,06,08,57,17.20
2017,07,06,08,58,17.30
2017,07,06,08,59,17.30
2017,07,06,09,00,17.30
2017,07,06,09,01,17.40
2017,07,06,09,02,17.40
2017,07,06,09,03,17.50
2017,07,06,09,04,17.60
2017,07,06,09,05,17.60
2017,07,06,09,06,17.60
2017,07,06,09,07,17.70
2017,07,06,09,08,17.70
2017,07,06,09,09,17.70
2017,07,06,09,10,17.80
2017,07,06,09,11,17.80
2017,07,06,09,12,17.80
2017,07,06,09,13,17.80
2017,07,06,09,14,17.90
2017,07,06,09,15,17.90
2017,07,06,09,16,17.90
2017,07,06,09,17,17.90
2017,07,06,09,18,17.90
2017,07,06,09,19,17.90
2017,07,06,09,20,17.80
2017,07,06,09,21,17.80
2017,07,06,09,22,17.80
2017,07,06,09,23,17.80
2017,07,06,09,24,17.80
2017,07,06,09,25,17.80
2017,07,06,09,26,17.90
2017,07,06,09,27,17.90
2017,07,06,09,28,17.90
2017,07,06,09,29,18.00
2017,07,06,09,30,18.00
2017,07,06,09,31,17.90
2017,07,06,09,32,17.90
2017,07,06,09,33,17.90
2017,07,06,09,34,17.90
2017,07,06,09,35,17.90
2017,07,06,09,36,17.90
2017,07,06,09,37,17.90
2017,07,06,09,38,17.90
2017,07,06,09,39,17.90
2017,07,06,09,40,17.90
2017,07,06,09,41,18.00
2017,07,06,09,42,18.00
2017,07,06,09,43,17.90
2017,07,06,09,44,18.00
2017,07,06,09,45,18.00
2017,07,06,09,46,18.00
2017,07,06,09,47,18.00
2017,07,06,09,48,18.00
2017,07,06,09,49,18.00
2017,07,06,09,50,18.00
2017,07,06,09,51,18.00
2017,07,06,09,52,18.10
2017,07,06,09,53,18.10
2017,07,06,09,54,18.10
2017,07,06,09,55,18.10
2017,07,06,09,56,18.10
2017,07,06,09,57,18.10
2017,07,06,09,58,18.10
2017,07,06,09,59,18.20
2017,07,06,10,00,18.20
2017,07,06,10,01,18.30
2017,07,06,10,02,18.40
2017,07,06,10,03,18.50
2017,07,06,10,04,18.50
2017,07,06,10,05,18.50
2017,07,06,10,06,18.50
2017,07,06,10,07,18.50
2017,07,06,10,08,18.60
2017,07,06,10,09,18.60
2017,07,06,10,10,18.70
2017,07,06,10,11,18.70
2017,07,06,10,12,18.70
2017,07,06,10,13,18.70
2017,07,06,10,14,18.70
2017,07,06,10,15,18.70
2017,07,06,10,16,18.70
2017,07,06,10,17,18.70
2017,07,06,10,18,18.70
2017,07,06,10,19,18.70
2017,07,06,10,20,18.70
2017,07,06,10,21,18.70
2017,07,06,10,22,18.60
2017,07,06,10,23,18.60
2017,07,06,10,24,18.70
2017,07,06,10,25,18.70
2017,07,06,10,26,18.80
2017,07,06,10,27,18.80
2017,07,06,10,28,18.80
2017,07,06,10,29,18.80
2017,07,06,10,30,18.80
2017,07,06,10,31,18.80
2017,07,06,10,32,18.80
2017,07,06,10,33,18.90
2017,07,06,10,34,19.00
2017,07,06,10,35,19.10
2017,07,06,10,36,19.30
2017,07,06,10,37,19.40
2017,07,06,10,38,19.50
2017,07,06,10,39,19.60
2017,07,06,10,40,19.70
2017,07,06,10,41,19.70
2017,07,06,10,42,19.80
2017,07,06,10,43,19.80
2017,07,06,10,44,19.80
2017,07,06,10,45,20.00
2017,07,06,10,46,20.10
2017,07,06,10,47,20.20
2017,07,06,10,48,20.30
2017,07,06,10,49,20.30
2017,07,06,10,50,20.40
2017,07,06,10,51,20.40
2017,07,06,10,52,20.40
2017,07,06,10,53,20.40
2017,07,06,10,54,20.40
2017,07,06,10,55,20.40
2017,07,06,10,56,20.40
2017,07,06,10,57,20.30
2017,07,06,10,58,20.30
2017,07,06,10,59,20.30
2017,07,06,11,00,20.30
2017,07,06,11,01,20.30
2017,07,06,11,02,20.30
2017,07,06,11,03,20.20
2017,07,06,11,04,20.10
2017,07,06,11,05,20.00
2017,07,06,11,06,19.90
2017,07,06,11,07,19.80
2017,07,06,11,08,19.80
2017,07,06,11,09,19.80
2017,07,06,11,10,19.70
2017,07,06,11,11,19.70
2017,07,06,11,12,19.80
2017,07,06,11,13,19.80
2017,07,06,11,14,19.90
2017,07,06,11,15,20.00
2017,07,06,11,16,20.10
2017,07,06,11,17,20.10
2017,07,06,11,18,20.10
2017,07,06,11,19,20.20
2017,07,06,11,20,20.20
2017,07,06,11,21,20.30
2017,07,06,11,22,20.30
2017,07,06,11,23,20.30
2017,07,06,11,24,20.40
2017,07,06,11,25,20.40
2017,07,06,11,26,20.50
2017,07,06,11,27,20.60
2017,07,06,11,28,20.60
2017,07,06,11,29,20.70
2017,07,06,11,30,20.60
2017,07,06,11,31,20.60
2017,07,06,11,32,20.60
2017,07,06,11,33,20.70
2017,07,06,11,34,20.70
2017,07,06,11,35,20.80
2017,07,06,11,36,20.80
2017,07,06,11,37,20.80
2017,07,06,11,38,20.80
2017,07,06,11,39,20.90
2017,07,06,11,40,20.90
2017,07,06,11,41,21.00
2017,07,06,11,42,21.00
2017,07,06,11,43,21.00
2017,07,06,11,44,21.10
2017,07,06,11,45,21.10
2017,07,06,11,46,21.20
2017,07,06,11,47,21.30
2017,07,06,11,48,21.40
2017,07,06,11,49,21.50
2017,07,06,11,50,21.60
2017,07,06,11,51,21.70
2017,07,06,11,52,21.80
2017,07,06,11,53,21.80
2017,07,06,11,54,21.80
2017,07,06,11,55,21.80
2017,07,06,11,56,21.90
2017,07,06,11,57,21.90
2017,07,06,11,58,22.00
2017,07,06,11,59,22.10
2017,07,06,12,00,22.10
2017,07,06,12,01,22.00
2017,07,06,12,02,22.00
2017,07,06,12,03,21.90
2017,07,06,12,04,21.80
2017,07,06,12,05,21.70
2017,07,06,12,06,21.60
2017,07,06,12,07,21.60
2017,07,06,12,08,21.60
2017,07,06,12,09,21.60
2017,07,06,12,10,21.70
2017,07,06,12,11,21.70
2017,07,06,12,12,21.80
2017,07,06,12,13,21.80
2017,07,06,12,14,21.90
2017,07,06,12,15,21.90
2017,07,06,12,16,22.00
2017,07,06,12,17,22.00
2017,07,06,12,18,22.10
2017,07,06,12,19,22.30
2017,07,06,12,20,22.40
2017,07,06,12,21,22.50
2017,07,06,12,22,22.60
2017,07,06,12,23,22.80
2017,07,06,12,24,22.90
2017,07,06,12,25,22.90
2017,07,06,12,26,23.00
2017,07,06,12,27,23.00
2017,07,06,12,28,23.10
2017,07,06,12,29,23.10
2017,07,06,12,30,23.10
2017,07,06,12,31,23.10
2017,07,06,12,32,23.20
2017,07,06,12,33,23.20
2017,07,06,12,34,23.20
2017,07,06,12,35,23.20
2017,07,06,12,36,23.20
2017,07,06,12,37,23.20
2017,07,06,12,38,23.10
2017,07,06,12,39,23.10
2017,07,06,12,40,23.10
2017,07,06,12,41,23.00
2017,07,06,12,42,23.00
2017,07,06,12,43,22.90
2017,07,06,12,44,22.80
2017,07,06,12,45,22.70
2017,07,06,12,46,22.60
2017,07,06,12,47,22.60
2017,07,06,12,48,22.60
2017,07,06,12,49,22.50
2017,07,06,12,50,22.40
2017,07,06,12,51,22.40
2017,07,06,12,52,22.30
2017,07,06,12,53,22.20
2017,07,06,12,54,22.10
2017,07,06,12,55,22.10
2017,07,06,12,56,22.00
2017,07,06,12,57,22.00
2017,07,06,12,58,22.00
2017,07,06,12,59,22.10
2017,07,06,13,00,22.10
2017,07,06,13,01,22.10
2017,07,06,13,02,22.20
2017,07,06,13,03,22.20
2017,07,06,13,04,22.30
2017,07,06,13,05,22.40
2017,07,06,13,06,22.50
2017,07,06,13,07,22.60
2017,07,06,13,08,22.60
2017,07,06,13,09,22.60
2017,07,06,13,10,22.60
2017,07,06,13,11,22.60
2017,07,06,13,12,22.60
2017,07,06,13,13,22.60
2017,07,06,13,14,22.60
2017,07,06,13,15,22.70
2017,07,06,13,16,22.70
2017,07,06,13,17,22.80
2017,07,06,13,18,22.90
2017,07,06,13,19,23.00
2017,07,06,13,20,23.20
2017,07,06,13,21,23.30
2017,07,06,13,22,23.40
2017,07,06,13,23,23.40
2017,07,06,13,24,23.50
2017,07,06,13,25,23.60
2017,07,06,13,26,23.60
2017,07,06,13,27,23.60
2017,07,06,13,28,23.60
2017,07,06,13,29,23.60
2017,07,06,13,30,23.60
2017,07,06,13,31,23.60
2017,07,06,13,32,23.70
2017,07,06,13,33,23.70
2017,07,06,13,34,23.70
2017,07,06,13,35,23.70
2017,07,06,13,36,23.70
2017,07,06,13,37,23.60
2017,07,06,13,38,23.50
2017,07,06,13,39,23.30
2017,07,06,13,40,23.30
2017,07,06,13,41,23.20
2017,07,06,13,42,23.10
2017,07,06,13,43,23.10
2017,07,06,13,44,23.00
2017,07,06,13,45,22.90
2017,07,06,13,46,22.80
2017,07,06,13,47,22.60
2017,07,06,13,48,22.50
2017,07,06,13,49,22.40
2017,07,06,13,50,22.30
2017,07,06,13,51,22.30
2017,07,06,13,52,22.30
2017,07,06,13,53,22.30
2017,07,06,13,54,22.40
2017,07,06,13,55,22.40
2017,07,06,13,56,22.40
2017,07,06,13,57,22.40
2017,07,06,13,58,22.40
2017,07,06,13,59,22.40
2017,07,06,14,00,22.40
2017,07,06,14,01,22.30
2017,07,06,14,02,22.30
2017,07,06,14,03,22.20
2017,07,06,14,04,22.10
2017,07,06,14,05,22.10
2017,07,06,14,06,22.00
2017,07,06,14,07,21.90
2017,07,06,14,08,21.90
2017,07,06,14,09,21.90
2017,07,06,14,10,21.90
2017,07,06,14,11,22.00
2017,07,06,14,12,22.00
2017,07,06,14,13,22.00
2017,07,06,14,14,22.00
2017,07,06,14,15,22.00
2017,07,06,14,16,22.10
2017,07,06,14,17,22.20
2017,07,06,14,18,22.20
2017,07,06,14,19,22.20
2017,07,06,14,20,22.30
2017,07,06,14,21,22.40
2017,07,06,14,22,22.60
2017,07,06,14,23,22.70
2017,07,06,14,24,22.90
2017,07,06,14,25,23.00
2017,07,06,14,26,23.20
2017,07,06,14,27,23.20
2017,07,06,14,28,23.10
2017,07,06,14,29,23.00
2017,07,06,14,30,23.00
2017,07,06,14,31,23.00
2017,07,06,14,32,23.00
2017,07,06,14,33,23.00
2017,07,06,14,34,22.90
2017,07,06,14,35,22.90
2017,07,06,14,36,23.00
2017,07,06,14,37,23.10
2017,07,06,14,38,23.20
2017,07,06,14,39,23.30
2017,07,06,14,40,23.40
2017,07,06,14,41,23.50
2017,07,06,14,42,23.70
2017,07,06,14,43,23.80
2017,07,06,14,44,23.90
2017,07,06,14,45,24.00
2017,07,06,14,46,24.10
2017,07,06,14,47,24.20
2017,07,06,14,48,24.20
2017,07,06,14,49,24.30
2017,07,06,14,50,24.40
2017,07,06,14,51,24.50
2017,07,06,14,52,24.40
2017,07,06,14,53,24.40
2017,07,06,14,54,24.30
2017,07,06,14,55,24.30
2017,07,06,14,56,24.20
2017,07,06,14,57,24.20
2017,07,06,14,58,24.10
2017,07,06,14,59,24.10
2017,07,06,15,00,24.10
2017,07,06,15,01,24.10
2017,07,06,15,02,24.10
2017,07,06,15,03,24.00
2017,07,06,15,04,24.00
2017,07,06,15,05,24.00
2017,07,06,15,06,24.00
2017,07,06,15,07,24.10
2017,07,06,15,08,24.10
2017,07,06,15,09,24.20
2017,07,06,15,10,24.30
2017,07,06,15,11,24.50
2017,07,06,15,12,24.60
2017,07,06,15,13,24.80
2017,07,06,15,14,25.00
2017,07,06,15,15,25.10
2017,07,06,15,16,25.30
2017,07,06,15,17,25.40
2017,07,06,15,18,25.60
2017,07,06,15,19,25.70
2017,07,06,15,20,25.80
2017,07,06,15,21,25.90
2017,07,06,15,22,26.00
2017,07,06,15,23,26.00
2017,07,06,15,24,26.00
2017,07,06,15,25,26.10
2017,07,06,15,26,26.00
2017,07,06,15,27,26.00
2017,07,06,15,28,26.00
2017,07,06,15,29,26.00
2017,07,06,15,30,26.10
2017,07,06,15,31,26.10
2017,07,06,15,32,26.10
2017,07,06,15,33,26.10
2017,07,06,15,34,26.10
2017,07,06,15,35,26.10
2017,07,06,15,36,26.10
2017,07,06,15,37,26.00
2017,07,06,15,38,26.00
2017,07,06,15,39,26.10
2017,07,06,15,40,26.10
2017,07,06,15,41,26.00
2017,07,06,15,42,26.00
2017,07,06,15,43,26.00
2017,07,06,15,44,26.00
2017,07,06,15,45,26.00
2017,07,06,15,46,25.90
2017,07,06,15,47,25.80
2017,07,06,15,48,25.80
2017,07,06,15,49,25.70
2017,07,06,15,50,25.70
2017,07,06,15,51,25.80
2017,07,06,15,52,25.80
2017,07,06,15,53,25.90
2017,07,06,15,54,26.00
2017,07,06,15,55,26.20
2017,07,06,15,56,26.30
2017,07,06,15,57,26.40
2017,07,06,15,58,26.40
2017,07,06,15,59,26.50
2017,07,06,16,00,26.50
2017,07,06,16,01,26.50
2017,07,06,16,02,26.50
2017,07,06,16,03,26.50
2017,07,06,16,04,26.50
2017,07,06,16,05,26.50
2017,07,06,16,06,26.50
2017,07,06,16,07,26.60
2017,07,06,16,08,26.60
2017,07,06,16,09,26.70
2017,07,06,16,10,26.80
2017,07,06,16,11,26.80
2017,07,06,16,12,26.90
2017,07,06,16,13,26.90
2017,07,06,16,14,26.90
2017,07,06,16,15,26.90
2017,07,06,16,16,26.90
2017,07,06,16,17,27.00
2017,07,06,16,18,27.10
2017,07,06,16,19,27.10
2017,07,06,16,20,27.20
2017,07,06,16,21,27.20
2017,07,06,16,22,27.20
2017,07,06,16,23,27.10
2017,07,06,16,24,26.90
2017,07,06,16,25,26.80
2017,07,06,16,26,26.70
2017,07,06,16,27,26.60
2017,07,06,16,28,26.50
2017,07,06,16,29,26.50
2017,07,06,16,30,26.50
2017,07,06,16,31,26.60
2017,07,06,16,32,26.70
2017,07,06,16,33,26.70
2017,07,06,16,34,26.80
2017,07,06,16,35,26.80
2017,07,06,16,36,26.80
2017,07,06,16,37,26.80
2017,07,06,16,38,26.80
2017,07,06,16,39,26.80
2017,07,06,16,40,26.90
2017,07,06,16,41,27.00
2017,07,06,16,42,27.10
2017,07,06,16,43,27.10
2017,07,06,16,44,27.00
2017,07,06,16,45,26.80
2017,07,06,16,46,26.60
2017,07,06,16,47,26.50
2017,07,06,16,48,26.30
2017,07,06,16,49,26.10
2017,07,06,16,50,25.90
2017,07,06,16,51,25.70
2017,07,06,16,52,25.40
2017,07,06,16,53,25.10
2017,07,06,16,54,24.90
2017,07,06,16,55,24.60
2017,07,06,16,56,24.50
2017,07,06,16,57,24.30
2017,07,06,16,58,24.20
2017,07,06,16,59,24.00
2017,07,06,17,00,23.90
2017,07,06,17,01,23.90
2017,07,06,17,02,23.80
2017,07,06,17,03,23.80
2017,07,06,17,04,23.80
2017,07,06,17,05,23.90
2017,07,06,17,06,24.00
2017,07,06,17,07,24.00
2017,07,06,17,08,24.10
2017,07,06,17,09,24.10
2017,07,06,17,10,24.20
2017,07,06,17,11,24.20
2017,07,06,17,12,24.30
2017,07,06,17,13,24.40
2017,07,06,17,14,24.40
2017,07,06,17,15,24.50
2017,07,06,17,16,24.50
2017,07,06,17,17,24.50
2017,07,06,17,18,24.40
2017,07,06,17,19,24.40